W7KKE-3 Weather Reports


Display with metric or nautical units.
time (UTC)temp
F
wind
direction
speed
MPH
gust
MPH
rain 1hr
in
rain 24hr
in
rain mn
in
humidity
%
barometer
mb
20161203133743 48 0 0.0 0.0 0.00 0.19 0.01 96 1028.8
20161203133244 48 0 0.0 0.0 0.00 0.19 0.01 96 1028.9
20161203132745 48 0 0.0 0.0 0.00 0.19 0.01 96 1028.9
20161203132243 48 0 0.0 0.0 0.00 0.19 0.01 96 1028.8
20161203131743 48 0 0.0 0.0 0.00 0.19 0.01 96 1028.7
20161203131246 48 0 0.0 0.0 0.00 0.19 0.01 96 1028.7
20161203130743 49 0 0.0 0.0 0.00 0.19 0.01 96 1028.7
20161203130243 48 0 0.0 0.0 0.00 0.19 0.01 96 1028.8
20161203125747 48 0 0.0 0.0 0.00 0.19 0.01 96 1028.8
20161203125244 49 0 0.0 0.0 0.00 0.19 0.01 96 1028.8
20161203123248 48 0 0.0 0.0 0.00 0.19 0.01 96 1028.6
20161203122744 48 0 0.0 0.0 0.00 0.19 0.01 96 1028.6
20161203122244 48 0 0.0 0.0 0.00 0.19 0.01 96 1028.6
20161203121244 49 0 0.0 0.0 0.00 0.19 0.01 96 1028.4
20161203120743 49 0 0.0 0.0 0.00 0.19 0.01 96 1028.5
20161203120247 50 0 0.0 0.0 0.00 0.19 0.01 96 1028.5
20161203115744 50 0 0.0 0.0 0.00 0.19 0.01 96 1028.5
20161203115244 50 0 0.0 0.0 0.00 0.19 0.01 96 1028.5
20161203114744 50 0 0.0 3.0 0.00 0.19 0.01 96 1028.5
20161203114302 50 319 0.0 3.0 0.00 0.19 0.01 96 1028.7
20161203113746 50 287 0.0 3.0 0.00 0.19 0.01 96 1028.9
20161203113250 50 320 0.0 8.0 0.00 0.19 0.01 96 1028.9
20161203112245 49 287 2.0 8.0 0.00 0.19 0.01 96 1028.7
20161203111744 50 0 1.0 1.0 0.00 0.19 0.01 96 1028.5
20161203111245 50 0 0.0 0.0 0.00 0.19 0.01 96 1028.4
20161203105249 50 0 0.0 0.0 0.00 0.19 0.01 96 1028.3
20161203104751 50 0 0.0 0.0 0.00 0.19 0.01 96 1028.3
20161203104247 50 0 0.0 0.0 0.00 0.19 0.01 95 1028.3
20161203103744 50 0 0.0 2.0 0.00 0.19 0.01 95 1028.3
20161203103243 50 0 0.0 2.0 0.01 0.19 0.01 95 1028.2
20161203102749 50 0 0.0 2.0 0.01 0.19 0.01 95 1028.2
20161203102249 50 338 0.0 2.0 0.01 0.19 0.01 95 1028.1
20161203101748 50 305 0.0 12.0 0.01 0.19 0.01 95 1028.1
20161203101245 51 322 1.0 12.0 0.01 0.19 0.01 95 1028.1
20161203100743 50 336 4.0 12.0 0.01 0.19 0.01 95 1028.1
20161203100246 50 333 7.0 17.0 0.01 0.18 0.01 95 1028.2
20161203095753 51 316 8.0 17.0 0.01 0.18 0.01 95 1028.1
20161203095250 51 324 8.0 17.0 0.01 0.18 0.01 95 1028.1
20161203094801 51 308 11.0 24.0 0.01 0.18 0.01 95 1027.9
20161203094252 51 285 11.0 24.0 0.01 0.18 0.01 95 1027.9
20161203093744 52 303 13.0 24.0 0.01 0.18 0.01 95 1027.8
20161203093250 52 298 11.0 23.0 0.00 0.18 0.00 95 1027.8
20161203092755 52 273 15.0 22.0 0.00 0.18 0.00 94 1027.7
20161203092345 52 298 13.0 14.0 0.00 0.18 0.00 93 1027.5
20161203091247 52 275 5.0 10.0 0.00 0.18 0.00 93 1027.4
20161203090744 52 295 4.0 7.0 0.00 0.18 0.00 93 1027.4
20161203090247 52 292 2.0 6.0 0.00 0.18 0.00 93 1027.3
20161203085746 52 280 1.0 6.0 0.00 0.18 0.00 93 1027.3
20161203085250 52 284 1.0 5.0 0.00 0.18 0.00 93 1027.3
20161203084745 52 282 1.0 11.0 0.00 0.18 0.00 93 1027.4
20161203084247 52 302 1.0 11.0 0.00 0.18 0.00 93 1027.4
20161203083747 52 267 5.0 11.0 0.00 0.18 0.00 93 1027.6
20161203083254 52 277 7.0 11.0 0.00 0.18 0.00 93 1027.5
20161203082754 52 281 7.0 11.0 0.00 0.18 0.00 93 1027.4
20161203082248 52 295 4.0 13.0 0.00 0.18 0.00 93 1027.4
20161203081753 52 294 5.0 13.0 0.00 0.18 0.00 93 1027.1
20161203081253 52 282 5.0 13.0 0.00 0.18 0.00 94 1027.1
20161203080744 52 288 6.0 11.0 0.00 0.18 0.00 93 1027.1
20161203080314 52 270 5.0 15.0 0.00 0.18 0.00 93 1027.0
20161203075745 52 299 6.0 15.0 0.00 0.18 0.18 93 1026.9
20161203075243 52 310 8.0 15.0 0.00 0.18 0.18 94 1026.9
20161203074743 51 312 7.0 12.0 0.00 0.18 0.18 94 1026.8
20161203074247 51 319 6.0 11.0 0.00 0.18 0.18 93 1026.6
20161203073743 51 312 7.0 9.0 0.00 0.18 0.18 93 1026.7
20161203073244 51 294 6.0 12.0 0.00 0.18 0.18 93 1026.6
20161203072750 51 302 4.0 12.0 0.00 0.18 0.18 93 1026.6
20161203072256 51 319 7.0 12.0 0.00 0.18 0.18 93 1026.5
20161203071745 51 329 6.0 13.0 0.00 0.18 0.18 94 1026.4
20161203071255 51 295 3.0 13.0 0.00 0.18 0.18 94 1026.4
20161203070749 51 316 2.0 13.0 0.00 0.18 0.18 94 1026.3
20161203070250 51 323 7.0 14.0 0.00 0.21 0.18 94 1026.3
20161203065244 51 316 5.0 14.0 0.00 0.21 0.18 94 1026.3
20161203064743 51 308 7.0 14.0 0.00 0.21 0.18 94 1026.3
20161203063246 51 315 9.0 14.0 0.00 0.21 0.18 95 1026.3
20161203062744 52 282 8.0 13.0 0.00 0.21 0.18 95 1026.3
20161203062243 51 309 7.0 16.0 0.00 0.21 0.18 95 1026.1
20161203061744 51 313 6.0 16.0 0.00 0.21 0.18 95 1026.1
20161203061243 52 310 9.0 16.0 0.00 0.21 0.18 95 1026.0
20161203060754 52 310 8.0 17.0 0.00 0.21 0.18 95 1025.8
20161203054748 52 313 10.0 16.0 0.00 0.22 0.18 96 1025.6
20161203054252 52 320 8.0 16.0 0.00 0.22 0.18 96 1025.4
20161203053747 52 306 7.0 16.0 0.00 0.22 0.18 96 1025.3
20161203053249 52 298 10.0 15.0 0.00 0.22 0.18 96 1025.4
20161203052756 52 316 8.0 16.0 0.00 0.22 0.18 96 1025.3
20161203052244 52 281 8.0 16.0 0.00 0.22 0.18 96 1025.2
20161203051743 52 322 11.0 16.0 0.00 0.22 0.18 96 1025.2
20161203051243 52 294 11.0 16.0 0.00 0.22 0.18 96 1025.1
20161203045316 52 306 11.0 16.0 0.00 0.22 0.18 96 1024.7
20161203044745 52 333 11.0 18.0 0.00 0.22 0.18 96 1024.6
20161203044245 53 303 9.0 18.0 0.00 0.22 0.18 97 1024.6
20161203043745 53 299 9.0 18.0 0.00 0.22 0.18 97 1024.5
20161203043244 53 306 12.0 17.0 0.00 0.22 0.18 97 1024.5
20161203042745 52 280 11.0 14.0 0.00 0.22 0.18 97 1024.5
20161203040756 52 315 6.0 14.0 0.00 0.22 0.18 97 1024.3
20161203040247 53 292 6.0 14.0 0.00 0.22 0.18 97 1024.4
20161203035752 52 315 7.0 13.0 0.00 0.22 0.18 97 1024.3
20161203035306 52 319 8.0 13.0 0.03 0.22 0.18 97 1024.3
20161203034743 52 301 7.0 10.0 0.03 0.22 0.18 97 1024.2
20161203034246 52 0 0.0 0.0 0.06 0.22 0.18 97 1024.3
20161203033745 52 0 0.0 0.0 0.06 0.22 0.18 97 1024.4
20161203033246 51 0 0.0 0.0 0.09 0.22 0.18 97 1024.3
20161203032817 51 0 0.0 8.0 0.09 0.22 0.18 97 1024.3
20161203032253 52 303 0.0 8.0 0.11 0.22 0.18 97 1024.5
20161203031747 51 334 0.0 8.0 0.11 0.22 0.18 97 1024.5
20161203030753 51 305 1.0 6.0 0.11 0.22 0.18 97 1024.3
20161203030243 51 252 0.0 5.0 0.12 0.18 0.18 97 1024.2
20161203025746 51 218 0.0 11.0 0.12 0.18 0.18 97 1024.1
20161203025314 50 112 1.0 11.0 0.10 0.17 0.18 97 1024.3
20161203024748 50 154 0.0 11.0 0.10 0.16 0.16 97 1024.2
20161203022751 50 187 1.0 14.0 0.05 0.11 0.09 97 1023.6
20161203022242 50 119 3.0 14.0 0.04 0.11 0.09 97 1023.5
20161203021745 50 134 3.0 14.0 0.04 0.11 0.08 96 1023.8
20161203021245 50 196 0.0 11.0 0.04 0.11 0.07 96 1023.8
20161203020745 50 163 2.0 11.0 0.04 0.11 0.07 96 1023.7
20161203020247 50 133 0.0 11.0 0.03 0.07 0.07 96 1023.8
20161203015745 50 183 0.0 8.0 0.03 0.07 0.06 96 1023.8
20161203015245 50 186 1.0 17.0 0.02 0.07 0.06 96 1023.9
20161203014747 50 126 6.0 17.0 0.02 0.07 0.05 96 1024.1
20161203014322 50 148 3.0 17.0 0.01 0.07 0.05 96 1024.1
20161203013753 50 184 0.0 14.0 0.01 0.07 0.04 96 1024.4
20161203013243 50 190 0.0 14.0 0.01 0.07 0.04 96 1024.5
20161203012800 50 148 2.0 14.0 0.01 0.07 0.04 96 1024.3
20161203012243 50 176 7.0 10.0 0.00 0.07 0.04 96 1024.2
20161203011742 50 198 3.0 10.0 0.00 0.07 0.03 96 1024.2
20161203010753 50 116 3.0 12.0 0.00 0.07 0.03 96 1024.4
20161203010247 50 182 3.0 12.0 0.00 0.07 0.03 96 1024.3
20161203005748 49 142 2.0 12.0 0.00 0.07 0.03 96 1024.3
20161203005245 50 169 0.0 9.0 0.00 0.07 0.03 96 1024.3
20161203004745 49 128 0.0 9.0 0.00 0.07 0.03 95 1024.2
20161203003245 50 135 0.0 14.0 0.00 0.07 0.03 95 1024.6
20161203002753 50 172 3.0 13.0 0.00 0.07 0.03 95 1024.5
20161203002244 50 107 5.0 13.0 0.00 0.07 0.03 95 1024.7
20161203001743 50 134 5.0 13.0 0.00 0.07 0.03 95 1024.7
20161203001246 50 179 2.0 13.0 0.00 0.07 0.03 95 1024.8
20161203000755 50 161 0.0 13.0 0.00 0.07 0.03 95 1024.7
20161203000243 50 107 5.0 13.0 0.00 0.07 0.03 95 1024.8
20161202235745 50 189 0.0 13.0 0.00 0.07 0.03 95 1025.0
20161202235257 50 196 2.0 12.0 0.00 0.07 0.03 95 1025.0
20161202234757 50 204 2.0 8.0 0.00 0.07 0.03 95 1025.1
20161202234249 50 177 2.0 12.0 0.00 0.07 0.03 95 1025.0
20161202233753 50 151 2.0 12.0 0.00 0.07 0.03 95 1025.0
20161202233244 50 113 0.0 12.0 0.00 0.07 0.03 95 1025.0
20161202232757 50 151 2.0 11.0 0.00 0.07 0.03 95 1025.0
20161202232244 50 145 3.0 11.0 0.00 0.07 0.03 95 1025.2
20161202231746 50 110 0.0 11.0 0.00 0.07 0.03 95 1025.2
20161202230743 50 201 4.0 13.0 0.00 0.07 0.03 94 1025.3
20161202230246 50 154 2.0 13.0 0.00 0.07 0.03 94 1025.3
20161202225745 50 71 5.0 11.0 0.00 0.07 0.03 95 1025.4
20161202225244 50 147 0.0 11.0 0.00 0.07 0.03 95 1025.3
20161202223244 50 193 0.0 13.0 0.00 0.07 0.03 95 1025.5
20161202222745 50 161 0.0 13.0 0.00 0.07 0.03 95 1025.6
20161202222245 50 110 4.0 7.0 0.00 0.07 0.03 95 1025.4
20161202221744 50 61 0.0 7.0 0.00 0.07 0.03 95 1025.5
20161202221249 50 138 1.0 11.0 0.00 0.07 0.03 95 1025.5
20161202220805 50 152 0.0 11.0 0.00 0.07 0.03 95 1025.4
20161202220243 50 173 0.0 11.0 0.00 0.07 0.03 95 1025.3
20161202215756 50 141 5.0 13.0 0.00 0.07 0.03 95 1025.4
20161202215245 49 158 1.0 13.0 0.00 0.07 0.03 95 1025.5
20161202214750 49 166 0.0 13.0 0.00 0.07 0.03 95 1025.3
20161202214252 49 131 0.0 9.0 0.00 0.07 0.03 96 1025.3
20161202213743 49 86 3.0 9.0 0.00 0.07 0.03 96 1025.2
20161202213242 49 158 2.0 8.0 0.00 0.07 0.03 96 1025.3
20161202212745 49 156 0.0 8.0 0.00 0.07 0.03 96 1025.3
20161202212243 48 103 3.0 7.0 0.00 0.07 0.03 96 1025.4
20161202211743 48 131 0.0 10.0 0.00 0.07 0.03 96 1025.8
20161202211250 48 133 0.0 10.0 0.00 0.07 0.03 96 1025.8
20161202210243 48 85 0.0 10.0 0.00 0.07 0.03 96 1026.3
20161202205747 48 102 0.0 7.0 0.00 0.07 0.03 96 1026.3
20161202205245 48 133 1.0 10.0 0.00 0.07 0.03 96 1026.3
20161202204750 48 107 1.0 10.0 0.00 0.07 0.03 96 1026.5
20161202204252 48 137 1.0 10.0 0.00 0.07 0.03 96 1026.6
20161202203745 48 145 0.0 7.0 0.00 0.07 0.03 96 1026.7
20161202201753 48 148 1.0 9.0 0.00 0.07 0.03 97 1026.7
20161202201244 48 103 0.0 9.0 0.00 0.07 0.03 97 1026.9
20161202200749 48 165 0.0 9.0 0.00 0.07 0.03 97 1027.0
20161202195743 48 85 1.0 8.0 0.00 0.08 0.03 97 1027.1
20161202195245 48 126 0.0 8.0 0.00 0.08 0.03 97 1027.2
20161202194745 48 68 1.0 6.0 0.00 0.08 0.03 97 1027.0
20161202194246 48 81 0.0 4.0 0.01 0.08 0.03 97 1027.0
20161202192745 47 64 0.0 4.0 0.01 0.08 0.03 97 1027.8
20161202192244 47 0 0.0 6.0 0.02 0.08 0.03 97 1027.9
20161202191743 48 95 0.0 6.0 0.02 0.08 0.03 97 1027.9
20161202191304 47 137 0.0 6.0 0.02 0.08 0.03 97 1027.9
20161202190742 47 102 0.0 8.0 0.02 0.08 0.03 97 1027.9
20161202190244 48 102 0.0 8.0 0.02 0.07 0.03 97 1027.9
20161202185801 48 149 0.0 8.0 0.02 0.07 0.03 97 1028.0
20161202185248 47 0 2.0 2.0 0.02 0.07 0.03 97 1028.1
20161202184800 48 0 0.0 0.0 0.02 0.07 0.03 97 1028.3
20161202183742 47 0 0.0 3.0 0.01 0.07 0.02 97 1028.3
20161202183245 48 0 0.0 3.0 0.01 0.07 0.02 97 1028.3
20161202182744 47 57 0.0 3.0 0.01 0.07 0.02 97 1028.4
20161202182243 48 57 0.0 2.0 0.00 0.07 0.02 97 1028.5
20161202181745 47 0 0.0 0.0 0.00 0.07 0.02 97 1028.3
20161202181248 47 0 0.0 3.0 0.00 0.07 0.01 97 1028.2
20161202180804 47 68 0.0 3.0 0.00 0.07 0.01 97 1028.2
20161202174748 47 63 0.0 2.0 0.01 0.08 0.01 97 1028.0
20161202174244 47 58 0.0 7.0 0.01 0.08 0.01 97 1027.9
20161202173752 47 0 0.0 7.0 0.01 0.08 0.01 97 1027.7
20161202173252 47 103 0.0 7.0 0.01 0.08 0.01 97 1027.7
20161202172745 47 99 0.0 5.0 0.01 0.08 0.01 97 1027.6
20161202172245 47 103 0.0 5.0 0.01 0.08 0.01 97 1027.5
20161202171743 47 89 1.0 3.0 0.01 0.08 0.01 97 1027.6
20161202171247 47 91 0.0 3.0 0.01 0.08 0.01 97 1027.7
20161202170744 47 0 0.0 2.0 0.01 0.08 0.01 97 1027.8
20161202170242 47 0 0.0 2.0 0.00 0.07 0.01 97 1027.8
20161202165744 47 85 0.0 2.0 0.00 0.07 0.00 97 1027.8
20161202165243 47 0 0.0 0.0 0.00 0.07 0.00 97 1027.8
20161202164744 47 0 0.0 0.0 0.00 0.07 0.00 97 1027.8
20161202164243 47 0 0.0 0.0 0.00 0.07 0.00 97 1027.7
20161202163747 47 0 0.0 0.0 0.00 0.07 0.00 97 1027.7
20161202163242 47 0 0.0 0.0 0.00 0.07 0.00 97 1027.6
20161202162744 47 0 0.0 0.0 0.00 0.07 0.00 97 1027.6
20161202162242 46 0 0.0 0.0 0.00 0.07 0.00 97 1027.5
20161202160242 47 162 0.0 2.0 0.00 0.08 0.00 97 1027.1
20161202155743 47 68 0.0 2.0 0.00 0.08 0.00 97 1027.1
20161202155242 47 0 0.0 2.0 0.00 0.08 0.00 97 1027.3
20161202154743 46 92 0.0 2.0 0.00 0.08 0.00 97 1027.5
20161202153244 46 0 0.0 0.0 0.00 0.08 0.00 97 1027.4
20161202152242 46 0 0.0 0.0 0.00 0.08 0.00 97 1027.3
20161202151742 46 0 0.0 0.0 0.00 0.08 0.00 97 1027.2
20161202151243 47 0 0.0 3.0 0.00 0.08 0.00 97 1027.3
20161202150802 47 0 0.0 3.0 0.00 0.08 0.00 97 1027.3
20161202150243 47 79 0.0 3.0 0.00 0.09 0.00 97 1027.3
20161202145754 46 141 0.0 1.0 0.00 0.09 0.00 97 1027.2
20161202145242 47 0 0.0 0.0 0.00 0.09 0.00 97 1027.4
20161202144744 47 0 0.0 0.0 0.00 0.09 0.00 97 1027.4
20161202142245 47 0 0.0 0.0 0.00 0.09 0.00 97 1027.8
20161202141742 47 0 0.0 0.0 0.00 0.09 0.00 97 1027.8
20161202141248 47 0 0.0 0.0 0.00 0.09 0.00 97 1027.9
20161202140743 47 0 0.0 0.0 0.00 0.09 0.00 97 1028.0
20161202140242 47 0 0.0 0.0 0.00 0.09 0.00 97 1028.0
20161202135816 47 0 0.0 3.0 0.00 0.09 0.00 97 1028.1
20161202134744 47 141 0.0 3.0 0.00 0.09 0.00 97 1027.9